This is the latest recevied weather packets stored in our database for station/object W7TTE. If no packets are shown the sender has not sent any weather packets the latest 10 day(s).
| Time | Temp. | Humidity | Pressure | Rain* | Wind** | Luminosity | Snow |
|---|---|---|---|---|---|---|---|
| 1777951222 | 22.78° C | 43% | 1013.4 hPa | 0 mm | - | 0 W/m² | - |
| 1777950919 | 22.78° C | 43% | 1013.4 hPa | 0 mm | - | 0 W/m² | - |
| 1777950615 | 22.78° C | 43% | 1013.3 hPa | 0 mm | - | 0 W/m² | - |
| 1777950312 | 22.78° C | 43% | 1013.1 hPa | 0 mm | - | 0 W/m² | - |
| 1777950008 | 23.33° C | 42% | 1013.1 hPa | 0 mm | - | 0 W/m² | - |
| 1777949704 | 23.33° C | 42% | 1013 hPa | 0 mm | - | 0 W/m² | - |
| 1777949404 | 23.33° C | 42% | 1013 hPa | 0 mm | - | 0 W/m² | - |
| 1777949100 | 23.33° C | 42% | 1013.3 hPa | 0 mm | - | 0 W/m² | - |
| 1777948797 | 23.33° C | 41% | 1013.3 hPa | 0 mm | - | 0 W/m² | - |
| 1777948494 | 23.33° C | 42% | 1012.8 hPa | 0 mm | - | 0 W/m² | - |
| 1777948192 | 23.33° C | 42% | 1012.9 hPa | 0 mm | - | 0 W/m² | - |
| 1777947889 | 23.33° C | 42% | 1013 hPa | 0 mm | - | 0 W/m² | - |
| 1777947586 | 23.33° C | 42% | 1012.9 hPa | 0 mm | - | 1 W/m² | - |
| 1777947282 | 23.33° C | 42% | 1013.1 hPa | 0 mm | - | 1 W/m² | - |
| 1777946978 | 23.89° C | 41% | 1013.1 hPa | 0 mm | - | 3 W/m² | - |
| 1777946674 | 23.89° C | 41% | 1013 hPa | 0 mm | - | 5 W/m² | - |
| 1777946371 | 23.89° C | 41% | 1013.1 hPa | 0 mm | - | 6 W/m² | - |
| 1777946068 | 23.89° C | 41% | 1013 hPa | 0 mm | - | 8 W/m² | - |
| 1777945765 | 23.89° C | 41% | 1013.3 hPa | 0 mm | - | 11 W/m² | - |
| 1777945462 | 23.89° C | 42% | 1013 hPa | 0 mm | - | 15 W/m² | - |
| 1777945159 | 23.89° C | 42% | 1013 hPa | 0 mm | - | 18 W/m² | - |
| 1777944856 | 23.89° C | 42% | 1013 hPa | 0 mm | - | 22 W/m² | - |
| 1777944554 | 23.89° C | 42% | 1012.8 hPa | 0 mm | - | 26 W/m² | - |
| 1777944252 | 23.89° C | 42% | 1013 hPa | 0 mm | - | 27 W/m² | - |
| 1777943947 | 23.89° C | 42% | 1012.9 hPa | 0 mm | - | 36 W/m² | - |
* Rain latest hour (hover to see other rain measurements)
** Current wind speed in m/s (hover to see current wind gust speed)